Skip Navigation Links
NOAA logo - Click to go to the NOAA homepage
NOAA's National Weather Service
Alaska Aviation Weather Unit
  NWS logo - Click to go to the NWS homepage
Left Navbar Graphic     22 AKDT = 06 GMT

   
NOAA is celebrating 200 years of science, service, and stewardship. Visit the NOAA 200th celebration Web site to learn more.
USA.gov is the U.S. Government's official Web portal to all Federal, state and local government Web resources and services.
Facebook
NWS on Facebook

Important Change Regarding the AAWU Web Presence

 

Over the last several months, the AAWU has been working to navigate its webpages to a nationally supported server. Security, as well as other needs, have necessitated the change.  In the process, we have made an effort to enhance the functionality of our website, as well as some of our products. As of June 20, 2017, aawu.arh.noaa.gov will be discontinued. The new AAWU web address is weather.gov/aawu. It is now live and will run in-parallel with the old site until it is discontinued. Please send any feedback or questions regarding the new webpages to nws.ar.aawu.webauthors@noaa.gov.  Thank you for your patience during this time of transition.
AAWU Home :: Display TAF Add Bookmark
TAF PAEI 280400Z 2804/2910 VRB06KT 9999 FEW070 BKN100 QNH2976INS
      TX14/2804Z TN03/2812Z=
METAR PAEI 280058Z AUTO 17003KT 10SM BKN100 13/M06 A3003=

METAR PAEI 280158Z AUTO 00000KT 10SM FEW130 13/M07 A3003=

METAR PAEI 280258Z AUTO 00000KT 10SM CLR 13/M06 A3002=

METAR PAEI 280358Z AUTO 18003KT 10SM FEW100 SCT130 14/M07 A3001=

METAR PAEI 280458Z AUTO 00000KT 10SM CLR 13/M07 A3001=

METAR PAEI 280558Z AUTO 33003KT 10SM CLR 12/M03 A3001=


NOAA's National Weather Service
Alaska Aviation Weather Unit
6930 Sand Lake Road
Anchorage, AK 99502-1845
Disclaimer
Credits
Glossary
Privacy Policy
About Us
Career Opportunities
Contact AAWU Internet Services Site last modified: April, 17th 2012